Flag for U.S.A. Weather past 2 weeks in Topeka, Kansas, U.S.A.

Now
41 °F

Sunny.


Feels Like: 34 °F
Forecast: 33 / 47 °F
Wind: 13 mph from Northeast

Location: Philip Billard Municipal Airport

Current Time: Mar 27, 2015 at 12:56:45 PM

Latest Report: Mar 27, 2015 at 11:53 AM


Visibility: 10 mi

Pressure: 30.29 "Hg

Humidity: 51%

Dew point: 24 °F

Location of TopekaLocation

Historic Weather in Topeka — Graph

°F

Topeka temperature yesterday

Maximum temperature yesterday: 53 °F (at 4:53 PM)
Minimum temperature yesterday: 32 °F (at 6:53 AM)
Average temperature yesterday: 43 °F

Past Weeks' High & Low Weather Summary

 TemperatureHumidityPressure
High84 °F (Mar 16, 2:53 PM)97% (Mar 25, 9:53 AM)30.40 "Hg (Mar 25, 9:53 AM)
Low29 °F (Mar 20, 5:53 AM)14% (Mar 15, 5:53 PM)29.80 "Hg (Mar 24, 2:53 PM)
Average50 °F58%30.11 "Hg
* Reported Mar 12 11:53 AM — Mar 27 11:53 AM, Topeka, Weather by CustomWeather, © 2015

Note: Actual official high and low records may vary slightly from our data, if they occured in-between our weather recording intervals... More about our weather records

Advertising

Topeka weather history for previous 24 hours

 ConditionsComfort  
Time TempWeatherWind HumidityBarometerVisibility
11:53 AM
Fri, Mar 27
41 °FSunny.13 mph51%30.29 "Hg10 mi
10:53 AM38 °FSunny.15 mph58%30.30 "Hg10 mi
7:53 AM33 °FPassing clouds.8 mph85%30.29 "Hg9 mi
6:53 AM34 °FOvercast.9 mph82%30.26 "Hg10 mi
5:53 AM33 °FClear.8 mph88%30.24 "Hg10 mi
4:53 AM35 °FPassing clouds.10 mph85%30.22 "Hg10 mi
3:53 AM36 °FMostly cloudy.12 mph89%30.19 "Hg10 mi
3:01 AM36 °FMostly cloudy.8 mph89%30.19 "Hg10 mi
1:53 AM37 °FMostly cloudy.10 mph93%30.19 "Hg10 mi
12:53 AM37 °FLight rain. Overcast.7 mph93%30.19 "Hg7 mi
11:53 PM
Thu, Mar 26
38 °FLight rain. Overcast.15 mph90%30.19 "Hg7 mi
10:53 PM38 °FLight rain. Mostly cloudy.15 mph90%30.16 "Hg10 mi
9:53 PM45 °FMostly cloudy.17 mph63%30.14 "Hg10 mi
8:53 PM48 °FOvercast.10 mph50%30.10 "Hg10 mi
7:53 PM50 °FOvercast.7 mph46%30.09 "Hg10 mi
6:53 PM51 °FPartly sunny.No wind38%30.08 "Hg10 mi
5:53 PM51 °FOvercast.3 mph38%30.08 "Hg10 mi
4:53 PM53 °FSunny.5 mph37%30.10 "Hg10 mi
3:53 PM52 °FSunny.10 mph38%30.13 "Hg10 mi
2:53 PM52 °FSunny.7 mph41%30.16 "Hg10 mi
1:53 PM50 °FSunny.10 mph43%30.19 "Hg10 mi
12:53 PM48 °FSunny.7 mph46%30.21 "Hg10 mi
Weather by CustomWeather, © 2015

See weather overviewHow to use our weather pages